Villa Grove, CO

1:32 PM MST on February 24, 2017 (GMT -0700)
Monarch Pass

Weather History for KMYP - March, 2014

Change the Weather History Date:

Tuesday, March 25, 2014

  Actual Average (KGUC) Record (KGUC)
Temperature  
Mean Temperature 27 °F -  
Max Temperature 35 °F 47 °F 66 °F (2012)
Min Temperature 19 °F 19 °F 1 °F (2013)
Degree Days  
Heating Degree Days 38    
Moisture  
Dew Point 4 °F    
Average Humidity 37    
Maximum Humidity 49    
Minimum Humidity 24    
Precipitation  
Precipitation 0.00 in - - ()
Sea Level Pressure  
Sea Level Pressure 30.30 in    
Wind  
Wind Speed 29 mph (West)    
Max Wind Speed 36 mph    
Max Gust Speed 41 mph    
Visibility 10 miles    
Events      
Averages and records for this station are not official NWS values.
T = Trace of Precipitation, MM = Missing Value Source: NWS Daily Summary

Daily Weather History Graph

Daily Weather History Graph

Search for Another Location

Airport or City:

Trip Planner

Search our weather history database for the weather conditions in past years. The results will help you decide how hot, cold, wet, or windy it might be!

Date:

Astronomy

Mar. 25, 2014 Rise Set
Actual Time 7:00 AM MDT 7:21 PM MDT
Civil Twilight 6:34 AM MDT 7:47 PM MDT
Nautical Twilight 6:03 AM MDT 8:19 PM MDT
Astronomical Twilight 5:31 AM MDT 8:50 PM MDT
Moon 3:20 AM MDT (3/25) 1:59 PM MDT (3/25)
Length of Visible Light 13h 13m
Length of Day
12h 21m
Waning Crescent, 31% of the Moon is Illuminated
Mar 25
Waning Crescent
Mar 30
New
Apr 7
First Quarter
Apr 15
Full
Apr 22
Last Quarter

Hourly Weather History & Observations

Time (MDT) Temp. Windchill Dew Point Humidity Pressure Visibility Wind Dir Wind Speed Gust Speed Precip Events Conditions
12:12 AM 21.2 °F 1.7 °F 3.2 °F 46% 30.37 in 10.0 mi West 35.7 mph 39.1 mph N/A   Clear
12:24 AM 21.2 °F 2.4 °F 3.2 °F 46% 30.37 in 10.0 mi West 32.2 mph - N/A   Clear
12:54 AM 21.2 °F 1.7 °F 3.2 °F 46% 30.36 in 10.0 mi West 35.7 mph - N/A   Clear
1:12 AM 21.2 °F 1.7 °F 3.2 °F 46% 30.36 in 10.0 mi West 35.7 mph - N/A   Clear
1:35 AM 21.2 °F 1.9 °F 3.2 °F 46% 30.36 in 10.0 mi West 34.5 mph 40.3 mph N/A   Clear
1:51 AM 19.4 °F 1.1 °F 3.2 °F 49% 30.37 in 10.0 mi West 27.6 mph - N/A   Clear
2:07 AM 19.4 °F 0.5 °F 3.2 °F 49% 30.37 in 10.0 mi WSW 29.9 mph 35.7 mph N/A   Clear
2:35 AM 19.4 °F 0.5 °F 3.2 °F 49% 30.37 in 10.0 mi West 29.9 mph - N/A   Clear
2:51 AM 19.4 °F 0.5 °F 3.2 °F 49% 30.37 in 10.0 mi West 29.9 mph - N/A   Clear
3:09 AM 19.4 °F 1.1 °F 3.2 °F 49% 30.37 in 10.0 mi West 27.6 mph 33.4 mph N/A   Clear
3:25 AM 19.4 °F -0.3 °F 3.2 °F 49% 30.36 in 10.0 mi West 33.4 mph - N/A   Clear
3:55 AM 21.2 °F 2.7 °F 3.2 °F 46% 30.36 in 10.0 mi West 31.1 mph - N/A   Clear
4:15 AM 21.2 °F 1.9 °F 3.2 °F 46% 30.35 in 10.0 mi West 34.5 mph - N/A   Clear
4:34 AM 21.2 °F 2.4 °F 3.2 °F 46% 30.36 in 10.0 mi West 32.2 mph - N/A   Clear
4:55 AM 21.2 °F 3.0 °F 3.2 °F 46% 30.36 in 10.0 mi West 29.9 mph - N/A   Clear
5:03 AM 21.2 °F 2.7 °F 3.2 °F 46% 30.36 in 10.0 mi West 31.1 mph 35.7 mph N/A   Clear
5:34 AM 21.2 °F 2.7 °F 3.2 °F 46% 30.36 in 10.0 mi West 31.1 mph 36.8 mph N/A   Clear
5:55 AM 21.2 °F 2.4 °F 3.2 °F 46% 30.36 in 10.0 mi West 32.2 mph - N/A   Clear
6:10 AM 21.2 °F 1.7 °F 3.2 °F 46% 30.36 in 10.0 mi West 35.7 mph - N/A   Clear
6:27 AM 21.2 °F 2.4 °F 3.2 °F 46% 30.36 in 10.0 mi West 32.2 mph - N/A   Clear
6:55 AM 21.2 °F 2.4 °F 3.2 °F 46% 30.36 in 10.0 mi West 32.2 mph - N/A   Clear
7:07 AM 21.2 °F 2.2 °F 3.2 °F 46% 30.36 in 10.0 mi West 33.4 mph - N/A   Clear
7:32 AM 21.2 °F 2.7 °F 3.2 °F 46% 30.36 in 10.0 mi West 31.1 mph - N/A   Clear
7:54 AM 21.2 °F 3.3 °F 3.2 °F 46% 30.37 in 10.0 mi West 28.8 mph - N/A   Clear
8:13 AM 21.2 °F 3.5 °F 3.2 °F 46% 30.38 in 10.0 mi West 27.6 mph - N/A   Clear
8:32 AM 21.2 °F 3.0 °F 3.2 °F 46% 30.37 in 10.0 mi WSW 29.9 mph - N/A   Clear
8:52 AM 21.2 °F 3.0 °F 3.2 °F 46% 30.38 in 10.0 mi WSW 29.9 mph - N/A   Clear
9:09 AM 23.0 °F 5.7 °F 3.2 °F 43% 30.37 in 10.0 mi WSW 28.8 mph 35.7 mph N/A   Clear
9:31 AM 24.8 °F 9.3 °F 3.2 °F 40% 30.38 in 10.0 mi West 24.2 mph 32.2 mph N/A   Clear
9:53 AM 26.6 °F 12.4 °F 3.2 °F 37% 30.39 in 10.0 mi WSW 21.9 mph - N/A   Clear
10:10 AM 26.6 °F 11.4 °F 3.2 °F 37% 30.39 in 10.0 mi WSW 25.3 mph 31.1 mph N/A   Clear
10:27 AM 28.4 °F 13.8 °F 5.0 °F 37% 30.39 in 10.0 mi WSW 25.3 mph 29.9 mph N/A   Clear
10:49 AM 30.2 °F 17.4 °F 5.0 °F 34% 30.39 in 10.0 mi West 20.7 mph 24.2 mph N/A   Clear
11:14 AM 32.0 °F 19.2 °F 5.0 °F 32% 30.38 in 10.0 mi West 23.0 mph 31.1 mph N/A   Clear
11:35 AM 32.0 °F 19.8 °F 6.8 °F 35% 30.37 in 10.0 mi SW 20.7 mph 27.6 mph N/A   Clear
11:55 AM 32.0 °F 18.6 °F 5.0 °F 32% 30.37 in 10.0 mi WSW 25.3 mph 32.2 mph N/A   Clear
12:14 PM 32.0 °F 18.9 °F 3.2 °F 30% 30.36 in 10.0 mi WSW 24.2 mph 33.4 mph N/A   Clear
12:29 PM 32.0 °F 18.1 °F 5.0 °F 32% 30.35 in 10.0 mi SW 27.6 mph 35.7 mph N/A   Clear
12:50 PM 33.8 °F 20.8 °F 5.0 °F 30% 30.34 in 10.0 mi WSW 26.5 mph 33.4 mph N/A   Clear
1:15 PM 33.8 °F 19.9 °F 6.8 °F 32% 30.33 in 10.0 mi WSW 31.1 mph 36.8 mph N/A   Clear
1:34 PM 33.8 °F 21.3 °F 3.2 °F 28% 30.33 in 10.0 mi WSW 24.2 mph 33.4 mph N/A   Clear
1:49 PM 35.6 °F 23.4 °F 3.2 °F 26% 30.32 in 10.0 mi West 25.3 mph 32.2 mph N/A   Clear
2:15 PM 35.6 °F 23.2 °F 3.2 °F 26% 30.30 in 10.0 mi West 26.5 mph 39.1 mph N/A   Clear
2:25 PM 35.6 °F 23.0 °F 3.2 °F 26% 30.29 in 10.0 mi West 27.6 mph 40.3 mph N/A   Clear
2:53 PM 35.6 °F 22.1 °F 1.4 °F 24% 30.28 in 10.0 mi West 32.2 mph 39.1 mph N/A   Clear
3:15 PM 35.6 °F 22.5 °F 3.2 °F 26% 30.27 in 10.0 mi West 29.9 mph 36.8 mph N/A   Clear
3:34 PM 35.6 °F 22.1 °F 3.2 °F 26% 30.26 in 10.0 mi West 32.2 mph 38.0 mph N/A   Clear
3:53 PM 35.6 °F 23.4 °F 3.2 °F 26% 30.26 in 10.0 mi West 25.3 mph 39.1 mph N/A   Clear
4:14 PM 35.6 °F 23.7 °F 3.2 °F 26% 30.25 in 10.0 mi West 24.2 mph 36.8 mph N/A   Clear
4:34 PM 35.6 °F 23.2 °F 3.2 °F 26% 30.25 in 10.0 mi West 26.5 mph 38.0 mph N/A   Clear
4:53 PM 35.6 °F 23.0 °F 3.2 °F 26% 30.23 in 10.0 mi West 27.6 mph 36.8 mph N/A   Clear
5:06 PM 35.6 °F 23.2 °F 5.0 °F 28% 30.23 in 10.0 mi West 26.5 mph 40.3 mph N/A   Clear
5:33 PM 35.6 °F 23.0 °F 1.4 °F 24% 30.22 in 10.0 mi West 27.6 mph 35.7 mph N/A   Clear
5:54 PM 33.8 °F 21.0 °F 1.4 °F 25% 30.22 in 10.0 mi WSW 25.3 mph 41.4 mph N/A   Clear
6:13 PM 33.8 °F 21.9 °F 3.2 °F 28% 30.22 in 10.0 mi West 21.9 mph 32.2 mph N/A   Clear
6:31 PM 33.8 °F 21.6 °F 5.0 °F 30% 30.21 in 10.0 mi West 23.0 mph 26.5 mph N/A   Clear
6:52 PM 33.8 °F 23.2 °F 5.0 °F 30% 30.21 in 10.0 mi West 17.3 mph 23.0 mph N/A   Clear
7:13 PM 32.0 °F 20.8 °F 5.0 °F 32% 30.20 in 10.0 mi West 17.3 mph - N/A   Clear
7:34 PM 32.0 °F 21.6 °F 5.0 °F 32% 30.20 in 10.0 mi WSW 15.0 mph - N/A   Clear
7:50 PM 30.2 °F 18.5 °F 5.0 °F 34% 30.19 in 10.0 mi WSW 17.3 mph 20.7 mph N/A   Clear
8:14 PM 32.0 °F 20.5 °F 3.2 °F 30% 30.18 in 10.0 mi West 18.4 mph 23.0 mph N/A   Clear
8:35 PM 30.2 °F 17.8 °F 3.2 °F 32% 30.18 in 10.0 mi WSW 19.6 mph - N/A   Clear
8:54 PM 30.2 °F 18.1 °F 3.2 °F 32% 30.18 in 10.0 mi WSW 18.4 mph - N/A   Clear
9:15 PM 30.2 °F 17.1 °F 3.2 °F 32% 30.17 in 10.0 mi WSW 21.9 mph - N/A   Clear
9:28 PM 30.2 °F 17.4 °F 3.2 °F 32% 30.17 in 10.0 mi WSW 20.7 mph - N/A   Clear
9:52 PM 30.2 °F 17.4 °F 5.0 °F 34% 30.16 in 10.0 mi WSW 20.7 mph - N/A   Clear
10:15 PM 30.2 °F 16.8 °F 5.0 °F 34% 30.15 in 10.0 mi WSW 23.0 mph - N/A   Clear
10:29 PM 30.2 °F 16.8 °F 5.0 °F 34% 30.15 in 10.0 mi WSW 23.0 mph - N/A   Clear
10:55 PM 30.2 °F 16.2 °F 5.0 °F 34% 30.14 in 10.0 mi WSW 25.3 mph - N/A   Clear
11:14 PM 30.2 °F 15.9 °F 5.0 °F 34% 30.13 in 10.0 mi WSW 26.5 mph 31.1 mph N/A   Clear
11:29 PM 30.2 °F 16.2 °F 5.0 °F 34% 30.13 in 10.0 mi WSW 25.3 mph - N/A   Clear